[[{"header":{"parameterUnit":"m.s-1","parameterCategory":1,"la1":30.2991,"la2":30.254,"lo1":-89.0895,"lo2":-89.0444,"dx":0.0017,"dy":0.0017,"nx":28,"ny":28,"refTime":"2023-01-07T03:00:00:Z","depth":0,"parameterNumber":2,"parameterNumberName":"U-component_of_WINDS"},"data":[0,0,0,0,0,0,0,0,0,0,0,0,0,0,0,0,0,0,0,0,0,0,0,0,0,0,0,0,0,0,0,0,0,0,0,0,0,0,0,0,0,0,0,0,0,0,0,0,0,0,0,0,0,0,0,0,0,0,-1.5455,-1.5456,0,-1.5515,-1.5516,-1.5517,-1.5517,-1.5516,-1.5516,-1.5515,-1.5578,-1.558,-1.5583,0,0,0,0,0,0,0,0,0,0,0,0,0,-1.5343,-1.5345,-1.5455,-1.5456,-1.5457,-1.5515,-1.5516,-1.5517,-1.5517,-1.5516,-1.5515,-1.5514,-1.5577,-1.558,-1.5583,0,0,0,0,0,0,0,0,0,0,0,0,0,-1.5396,-1.5345,-1.5455,-1.5464,-1.5465,-1.5515,-1.5516,-1.5517,-1.5517,-1.5516,-1.5515,-1.5514,-1.5576,-1.558,-1.5583,-1.5629,0,0,-1.5594,-1.5596,0,0,0,0,0,0,0,0,-1.5393,-1.54,-1.5462,-1.5463,-1.5465,-1.5507,-1.5499,-1.5554,-1.5518,-1.5498,-1.5515,-1.5513,-1.5555,-1.5561,-1.5575,-1.5632,-1.5634,-1.5595,-1.5597,-1.5598,-1.5599,0,0,0,0,0,0,0,-1.5389,-1.5398,-1.5479,-1.5463,-1.5465,-1.5465,-1.5472,-1.551,-1.5532,-1.5499,-1.5499,-1.5506,-1.5556,-1.5571,-1.5576,-1.5635,-1.5594,-1.5598,-1.56,-1.5601,-1.5733,-1.5735,0,0,0,0,0,0,-1.5384,-1.5394,-1.5477,-1.5481,-1.5425,-1.5468,-1.5475,-1.5495,-1.5532,-1.5536,-1.5507,-1.5506,-1.5566,-1.5572,-1.5578,-1.5634,-1.5598,-1.5602,-1.5604,-1.5732,-1.5734,-1.5735,0,0,0,0,0,0,-1.5381,-1.5391,-1.5475,-1.5438,-1.5448,-1.5472,-1.5494,-1.5497,-1.5512,-1.5538,-1.5542,-1.5518,-1.5565,-1.5573,-1.5616,-1.5636,-1.5603,-1.5607,-1.573,-1.5733,-1.5734,-1.5746,0,0,0,0,0,0,-1.5378,-1.539,-1.5407,-1.5438,-1.545,-1.5511,-1.5495,-1.5499,-1.5518,-1.5517,-1.555,-1.5554,-1.5565,-1.5611,-1.562,-1.5641,-1.5609,-1.5729,-1.5731,-1.5734,-1.5744,-1.5748,-1.5752,0,0,0,0,0,-1.5374,-1.5408,-1.5408,-1.5418,-1.5472,-1.5512,-1.5519,-1.553,-1.5519,-1.5537,-1.5554,-1.5553,-1.5633,-1.5615,-1.5625,-1.5648,-1.5728,-1.5731,-1.5734,-1.5742,-1.5747,-1.5752,0,0,0,0,0,0,-1.5379,-1.5412,-1.5412,-1.5457,-1.5482,-1.5512,-1.5534,-1.5535,-1.5564,-1.5562,-1.5575,-1.5583,-1.5625,-1.5641,-1.5621,-1.5694,-1.5679,-1.5684,-1.5682,-1.5687,-1.5691,-1.5686,-1.5612,0,0,0,0,0,-1.5385,-1.5415,-1.5442,-1.548,-1.5492,-1.5511,-1.5529,-1.5535,-1.5561,-1.5572,-1.5592,-1.5618,-1.5649,-1.5669,-1.5699,-1.5747,-1.5754,-1.5767,-1.5771,-1.5774,-1.5778,-1.5805,-1.5811,-1.5745,-1.5745,-1.5745,0,0,-1.5399,-1.5421,-1.5438,-1.5481,-1.5501,-1.5531,-1.552,-1.5552,-1.5575,-1.5577,-1.5619,-1.5635,-1.5664,-1.571,-1.5731,-1.5724,-1.5798,-1.5778,-1.578,-1.5783,-1.5809,-1.5815,-1.5821,-1.5747,-1.5747,-1.5747,0,0,-1.5439,-1.5458,-1.5492,-1.5512,-1.5541,-1.5554,-1.5562,-1.5592,-1.5603,-1.5645,-1.5647,-1.5675,-1.5728,-1.5749,-1.5767,-1.5816,-1.5816,-1.5826,-1.5846,-1.5872,-1.5877,-1.5882,-1.59,-1.5906,-1.583,-1.583,-1.583,0,-1.5452,-1.5498,-1.5509,-1.5542,-1.5561,-1.5563,-1.5598,-1.5617,-1.5655,-1.5668,-1.566,-1.5727,-1.5747,-1.5798,-1.581,-1.5824,-1.5834,-1.5822,-1.5875,-1.588,-1.5885,-1.5902,-1.5909,-1.5831,-1.5831,-1.5831,-1.583,0,-1.5513,-1.5544,-1.5568,-1.5604,-1.5626,-1.5659,-1.5676,-1.5697,-1.5702,-1.5716,-1.5759,-1.5783,-1.5818,-1.5831,-1.5836,-1.5883,-1.5878,-1.5873,-1.5858,-1.5892,-1.5908,-1.5915,-1.5832,-1.5832,-1.5831,-1.5831,0,0,-1.5557,-1.56,-1.5608,-1.5625,-1.5658,-1.5683,-1.5717,-1.5751,-1.5769,-1.5796,-1.5825,-1.587,-1.5865,-1.5885,-1.5893,-1.5916,-1.5954,-1.5908,-1.5909,-1.5916,-1.6007,-1.6011,-1.6018,-1.5954,-1.5956,-1.5957,-1.6005,0,-1.5601,-1.566,-1.5672,-1.5724,-1.5753,-1.5757,-1.5786,-1.5811,-1.5825,-1.5853,-1.5868,-1.59,-1.5892,-1.5904,-1.5927,-1.5944,-1.5972,-1.5941,-1.5982,-1.5983,-1.5974,-1.6027,-1.6031,-1.6074,-1.6011,-1.6012,-1.6013,0,-1.566,-1.5688,-1.5742,-1.5772,-1.5785,-1.5811,-1.5844,-1.587,-1.5898,-1.5907,-1.5929,-1.5935,-1.5971,-1.5955,-1.6005,-1.5984,-1.6001,-1.6013,-1.6015,-1.6019,-1.6,-1.6032,-1.6089,-1.6095,-1.6023,-1.6022,-1.6022,0,-1.5687,-1.5738,-1.5778,-1.5792,-1.5828,-1.5846,-1.5862,-1.5889,-1.5908,-1.5937,-1.595,-1.5983,-1.6001,-1.6026,-1.6041,-1.6028,-1.609,-1.6075,-1.6099,-1.6099,-1.6112,-1.6111,-1.6172,-1.6124,-1.6123,-1.6123,-1.6123,0,-1.5735,-1.5768,-1.579,-1.5814,-1.5852,-1.5865,-1.5903,-1.5919,-1.5942,-1.597,-1.5976,-1.6002,-1.602,-1.6049,-1.606,-1.6101,-1.6109,-1.6117,-1.612,-1.6117,-1.6116,-1.6128,-1.6125,-1.6125,-1.6125,-1.6124,-1.6124,0,-1.5772,-1.5788,-1.5831,-1.5861,-1.5869,-1.5896,-1.5922,-1.5946,-1.5961,-1.5996,-1.6005,-1.6028,-1.6062,-1.6079,-1.6123,-1.6131,-1.6176,-1.6177,-1.6166,-1.6167,-1.619,-1.6188,-1.6262,-1.6272,-1.6217,-1.6217,-1.6218,0,-1.5801,-1.5827,-1.5859,-1.5878,-1.5894,-1.5925,-1.5945,-1.5959,-1.598,-1.6014,-1.6034,-1.6069,-1.6097,-1.6153,-1.6173,-1.6207,-1.6208,-1.6232,-1.6213,-1.6209,-1.6209,-1.6207,-1.621,-1.6235,-1.6236,-1.6236,-1.6236,0,-1.5851,-1.5858,-1.5886,-1.5918,-1.5942,-1.5967,-1.5993,-1.6008,-1.6027,-1.605,-1.6085,-1.6107,-1.6151,-1.6186,-1.622,-1.6238,-1.6241,-1.6242,-1.6249,-1.6246,-1.6239,-1.6243,-1.6175,-1.624,-1.624,-1.624,-1.6239,-1.6239,-1.5885,-1.5908,-1.5935,-1.5967,-1.5987,-1.6011,-1.6035,-1.6052,-1.6081,-1.6118,-1.6125,-1.6162,-1.619,-1.6237,-1.6255,-1.6285,-1.628,-1.6291,-1.6294,-1.6296,-1.6297,-1.6234,-1.6292,-1.6292,-1.6292,-1.6292,-1.6292,0,-1.5936,-1.5953,-1.5982,-1.6017,-1.6043,-1.6042,-1.6071,-1.6092,-1.6124,-1.615,-1.6178,-1.6218,-1.6252,-1.6276,-1.631,-1.633,-1.6332,-1.6338,-1.6337,-1.6341,-1.63,-1.629,-1.6336,-1.6336,-1.6336,-1.6336,-1.6336,-1.6336,-1.5965,-1.6005,-1.6014,-1.6064,-1.6081,-1.6117,-1.6134,-1.6156,-1.6176,-1.6221,-1.6249,-1.6264,-1.6289,-1.6325,-1.6356,-1.6363,-1.6375,-1.6382,-1.6388,-1.6349,-1.6344,-1.6339,-1.633,-1.6384,-1.6384,-1.6427,-1.6427,-1.6427]},{"header":{"parameterUnit":"m.s-1","parameterCategory":1,"la1":30.2991,"la2":30.254,"lo1":-89.0895,"lo2":-89.0444,"dx":0.0017,"dy":0.0017,"nx":28,"ny":28,"refTime":"2023-01-07T03:00:00:Z","depth":0,"parameterNumber":3,"parameterNumberName":"V-component_of_WINDS"},"data":[0,0,0,0,0,0,0,0,0,0,0,0,0,0,0,0,0,0,0,0,0,0,0,0,0,0,0,0,0,0,0,0,0,0,0,0,0,0,0,0,0,0,0,0,0,0,0,0,0,0,0,0,0,0,0,0,0,0,1.8571,1.8573,0,1.8701,1.8702,1.8704,1.8747,1.8746,1.8746,1.8745,1.8878,1.8882,1.8886,0,0,0,0,0,0,0,0,0,0,0,0,0,1.8362,1.8366,1.8571,1.8573,1.8575,1.8701,1.8702,1.8704,1.8747,1.8746,1.8746,1.8745,1.8876,1.8881,1.8886,0,0,0,0,0,0,0,0,0,0,0,0,0,1.8468,1.8367,1.8571,1.8611,1.8616,1.87,1.8702,1.8705,1.8747,1.8746,1.8745,1.8745,1.8875,1.8881,1.8887,1.894,0,0,1.8905,1.8908,0,0,0,0,0,0,0,0,1.8462,1.8476,1.8604,1.8608,1.8614,1.8707,1.8677,1.8784,1.8747,1.8697,1.8745,1.8744,1.8821,1.8832,1.8858,1.8947,1.8952,1.8906,1.8909,1.8912,1.8914,0,0,0,0,0,0,0,1.8455,1.8471,1.8623,1.8605,1.8612,1.8623,1.8637,1.8698,1.8762,1.8702,1.8705,1.872,1.8824,1.8852,1.8861,1.8954,1.8905,1.8911,1.8915,1.8917,1.9095,1.9096,0,0,0,0,0,0,1.8441,1.8464,1.8618,1.8626,1.8535,1.8627,1.8643,1.8678,1.8762,1.8774,1.872,1.8721,1.8842,1.8854,1.8866,1.8935,1.8912,1.8918,1.8921,1.9094,1.9095,1.9096,0,0,0,0,0,0,1.8436,1.8454,1.8613,1.8546,1.8567,1.8632,1.867,1.8681,1.8709,1.8776,1.8788,1.8737,1.8842,1.8858,1.8922,1.894,1.892,1.8926,1.9092,1.9094,1.9095,1.9073,0,0,0,0,0,0,1.843,1.8452,1.8473,1.8546,1.8571,1.8666,1.8672,1.8684,1.8719,1.8722,1.8795,1.8806,1.8842,1.8913,1.8928,1.8948,1.8931,1.9091,1.9093,1.9095,1.9073,1.9074,1.9075,0,0,0,0,0,1.8422,1.8461,1.8474,1.8492,1.8598,1.8667,1.8681,1.8723,1.872,1.8742,1.8786,1.8804,1.8936,1.8919,1.8936,1.8959,1.909,1.9092,1.9095,1.9072,1.9074,1.9075,0,0,0,0,0,0,1.8388,1.8472,1.8486,1.8551,1.8602,1.8675,1.8703,1.8723,1.8776,1.8776,1.8825,1.8841,1.8902,1.8937,1.8916,1.9016,1.9014,1.902,1.8991,1.8993,1.8994,1.8984,1.8936,0,0,0,0,0,1.8388,1.8437,1.8508,1.8558,1.8582,1.8638,1.867,1.8697,1.8752,1.8774,1.8822,1.8875,1.8928,1.8963,1.9016,1.9078,1.9095,1.9102,1.9104,1.9104,1.9109,1.9145,1.915,1.9104,1.9104,1.9104,0,0,1.8389,1.844,1.8468,1.8552,1.8595,1.8645,1.8656,1.8708,1.8746,1.8782,1.8846,1.8883,1.8945,1.9009,1.9039,1.904,1.9125,1.9107,1.9107,1.9112,1.9148,1.9152,1.9156,1.9106,1.9105,1.9105,0,0,1.8415,1.8459,1.8506,1.8548,1.8613,1.865,1.8661,1.8732,1.8758,1.8822,1.8851,1.8896,1.8987,1.9031,1.9064,1.9108,1.9127,1.9124,1.913,1.9165,1.9169,1.9172,1.9188,1.9193,1.9128,1.9128,1.9128,0,1.8408,1.8484,1.8527,1.8578,1.8614,1.865,1.8697,1.8737,1.8815,1.884,1.8839,1.8955,1.8999,1.9074,1.9084,1.9111,1.9125,1.9116,1.9165,1.9168,1.9172,1.9188,1.9194,1.9128,1.9128,1.9128,1.9128,0,1.8472,1.8524,1.8554,1.8629,1.8669,1.8718,1.8769,1.8804,1.8828,1.8865,1.8931,1.8985,1.905,1.907,1.9094,1.9148,1.9147,1.9155,1.9154,1.9175,1.9191,1.9197,1.9126,1.9127,1.9127,1.9127,0,0,1.848,1.8579,1.8589,1.8624,1.8698,1.874,1.8791,1.8854,1.8883,1.8937,1.8981,1.9057,1.9066,1.9104,1.9133,1.9164,1.9195,1.9169,1.9171,1.9172,1.9259,1.9253,1.9259,1.9208,1.921,1.9211,1.9254,0,1.8517,1.8609,1.8649,1.8723,1.8773,1.8807,1.8852,1.8902,1.8938,1.8985,1.9026,1.9079,1.9086,1.9109,1.9141,1.9185,1.9214,1.9182,1.925,1.9252,1.9234,1.9267,1.926,1.9298,1.926,1.9261,1.9262,0,1.8571,1.8625,1.8703,1.8772,1.8794,1.8833,1.8895,1.894,1.8998,1.9022,1.9065,1.9094,1.9149,1.9144,1.9221,1.9199,1.9229,1.9255,1.9257,1.9265,1.9258,1.9276,1.9311,1.9317,1.9272,1.9271,1.9271,0,1.857,1.8661,1.8721,1.8749,1.8831,1.8858,1.8893,1.895,1.8986,1.904,1.9064,1.9124,1.9156,1.9202,1.9246,1.9238,1.9319,1.9317,1.9341,1.934,1.9356,1.9354,1.9397,1.9375,1.9375,1.9375,1.9375,0,1.8606,1.8653,1.8721,1.8757,1.8811,1.8858,1.891,1.8948,1.8998,1.9043,1.9076,1.9118,1.9173,1.9221,1.9255,1.9314,1.9329,1.935,1.9359,1.9347,1.9344,1.9368,1.9366,1.9377,1.9376,1.9376,1.9376,0,1.8614,1.8661,1.8728,1.88,1.8819,1.8855,1.8917,1.8954,1.8992,1.9048,1.9064,1.9123,1.9182,1.923,1.9307,1.933,1.9391,1.9401,1.9372,1.9376,1.9397,1.9394,1.9456,1.9467,1.9437,1.9437,1.9438,0,1.8634,1.8671,1.8746,1.8779,1.8813,1.8865,1.8902,1.8949,1.8986,1.9055,1.9084,1.9145,1.9196,1.9288,1.9339,1.9398,1.941,1.9427,1.9419,1.9406,1.941,1.9407,1.9412,1.9428,1.9428,1.9428,1.9428,0,1.8665,1.8686,1.8738,1.8798,1.884,1.889,1.894,1.8965,1.9022,1.9061,1.9122,1.9162,1.924,1.9301,1.9365,1.9402,1.9425,1.943,1.9439,1.9427,1.9409,1.9419,1.9374,1.9429,1.9428,1.9428,1.9428,1.9428,1.868,1.8714,1.8773,1.8829,1.8872,1.8918,1.8957,1.8999,1.905,1.9118,1.9143,1.9205,1.9263,1.9352,1.9389,1.9438,1.9441,1.9453,1.9456,1.9459,1.9457,1.9401,1.945,1.945,1.945,1.945,1.945,0,1.8712,1.8752,1.8803,1.8873,1.8917,1.8934,1.8991,1.9027,1.9081,1.9133,1.9183,1.9253,1.9311,1.9367,1.9428,1.9457,1.9469,1.9472,1.947,1.9478,1.9451,1.9438,1.9461,1.9461,1.9461,1.9461,1.9461,1.9461,1.8735,1.8794,1.8823,1.8904,1.8943,1.9004,1.9035,1.9078,1.912,1.9196,1.9245,1.9281,1.9334,1.94,1.9455,1.947,1.9491,1.9491,1.9508,1.9482,1.948,1.9479,1.9466,1.9495,1.9495,1.9531,1.9532,1.9532]}]]